Regional Weather Roundup
Issued by NWS Upton, NY

Current Version | Previous Version | Text Only | Print | Product List | Glossary On
Versions: 1 2 3 4 5 6 7 8 9 10 11 12 13 14 15 16 17 18 19 20 21 22 23 24 25 26 27 28
000
ASUS41 KOKX 011804
RWROKX

REGIONAL WEATHER ROUNDUP
NATIONAL WEATHER SERVICE NEW YORK NY
200 PM EDT SUN MAY 01 2016

NOTE: "FAIR" INDICATES FEW OR NO CLOUDS BELOW 12,000 FEET WITH NO
SIGNIFICANT WEATHER AND/OR OBSTRUCTIONS TO VISIBILITY.

NYZ071-072-176-178-NJZ106-104-011900-
NEW YORK CITY METRO AREA


CITY           SKY/WX    TMP DP  RH WIND       PRES   REMARKS
CENTRAL PARK   CLOUDY    48  43  82 VRB6      30.18F
LAGUARDIA APRT LGT RAIN  48  45  87 SE9       30.16F
KENNEDY INTL   LGT RAIN  48  44  86 E10       30.18F
NEWARK/LIBERTY LGT RAIN  45  45 100 SE9       30.16F
BRNX BOT. GARD   N/A     46  43  87 SE10      30.17F
TETERBORO      CLOUDY    48  41  76 SE10      30.15F
$$

NYZ177-179-078>081-011900-
LONG ISLAND NEW YORK

CITY           SKY/WX    TMP DP  RH WIND       PRES   REMARKS
FARMINGDALE    LGT RAIN  48  44  86 SE13      30.17F FOG
ISLIP          LGT RAIN  48  44  86 SE12      30.17F
SHIRLEY        LGT RAIN  47  44  90 SE5       30.20S
RIVERHEAD        N/A     48  41  76 S1        30.20R
WESTHAMPTON    LGT RAIN  47  41  80 SE8       30.21F
EAST HAMPTON   LGT RAIN  46  39  75 SE7       30.21F
MONTAUK POINT    N/A     48  37  65 VRB5      30.23F
$$

NYZ052-065-067-011900-
HUDSON VALLEY

CITY           SKY/WX    TMP DP  RH WIND       PRES   REMARKS
WHITE PLAINS   CLOUDY    47  41  80 SE13      30.16S
NEWBURGH       LGT RAIN  45  45 100 SE9       30.15F FOG
MONTGOMERY     LGT RAIN  46  43  89 CALM      30.14F FOG
POUGHKEEPSIE   LGT RAIN  48  44  86 E7        30.15F FOG
ALBANY         LGT RAIN  45  41  86 SE10      30.17S FOG
$$

NJZ001-105-106-008-010-013-015-019>022-104-011900-
NEW JERSEY

CITY           SKY/WX    TMP DP  RH WIND       PRES   REMARKS
NEWARK/LIBERTY LGT RAIN  45  45 100 SE9       30.16F
TETERBORO      CLOUDY    48  41  76 SE10      30.15F
CALDWELL       LGT RAIN  48  44  86 SE7       30.15F FOG
MORRISTOWN     LGT RAIN  48  45  87 S8        30.15F
SOMERVILLE     CLOUDY    49  46  90 SE5       30.12F FOG
SUSSEX         LGT RAIN  46  42  86 CALM      30.13F FOG
ANDOVER          N/A     46  44  93 CALM      30.12F
TRENTON        LGT RAIN  50  46  86 SE9       30.11F
MILLVILLE      RAIN      51  49  92 E6        30.11F FOG
ATLANTIC CITY  RAIN      50  49  96 E9        30.12F FOG
WRIGHTSTOWN    LGT RAIN  49  48  95 E7        30.10F
TOMS RIVER     CLOUDY    48  45  87 E7        30.14F
BELMAR         LGT RAIN  48  46  93 E12       30.16F
$$

PAZ047>061-062-071-011900-
EASTERN PENNSYLVANIA

CITY           SKY/WX    TMP DP  RH WIND       PRES   REMARKS
PHILADELPHIA   LGT RAIN  52  47  83 CALM      30.14R
ALLENTOWN      CLOUDY    48  44  86 E5        30.12S FOG
SCRANTON       RAIN      46  42  86 CALM      30.08S FOG
$$

CTZ002-004>006-009-010-012-RIZ004-006-007-MAZ004-011-015-011900-
SOUTHERN NEW ENGLAND
 IN CT

CITY           SKY/WX    TMP DP  RH WIND       PRES   REMARKS
BRADLEY INTL   LGT RAIN  49  33  54 S7        30.19F
HARTFORD       CLOUDY    51  35  54 S3        30.20F
DANBURY        LGT RAIN  46  40  79 SE7       30.18S
WTRBRY/OXFORD  LGT RAIN  45  37  76 SE6       30.19F FOG
BRIDGEPORT     LGT RAIN  49  45  86 E10       30.19S
MERIDEN        CLOUDY    49  35  58 SE7       30.20F
NEW HAVEN      LGT RAIN  47  40  76 SE8       30.20F
CHESTER        CLOUDY    48  32  53 SE6       30.19F
GROTON         CLOUDY    49  39  68 SE8       30.21F
WILLIMANTIC    CLOUDY    53  27  36 S8        30.21F

 IN RI

CITY           SKY/WX    TMP DP  RH WIND       PRES   REMARKS
PROVIDENCE     CLOUDY    51  26  37 S10       30.23S
BLOCK ISLAND   LGT RAIN  48  36  63 SE12      30.22F
WESTERLY       CLOUDY    50  36  58 E7        30.23S

 IN MA

CITY           SKY/WX    TMP DP  RH WIND       PRES   REMARKS
BOSTON         CLOUDY    53  31  42 E5        30.23S
WORCESTER      LGT RAIN  48  33  56 SE8       30.19F
WESTFIELD      LGT RAIN  48  36  63 SW6       30.20S
PROVINCETOWN   CLOUDY    52  23  32 SE13      30.24F
NANTUCKET      CLOUDY    50  35  56 SE15      30.22F
$$

ANZ330-335-338-340-345-350-353-355-011900-
COASTAL MARINE OBSERVATIONS


STATION/POSITION TIME  SKY/WX   TEMP    WIND        PRES    VSBY  WAVE
                                AIR SEA DIR/SP/G                  HT/PER
                 (UTC)          (F)     (DEG/KT/KT) (MB)    (MI)  (FT/S)
NY HARB ENTRANCE 1650            48 51  100/ 12/ 14 1021.5          4/ 8
20S FIRE ISLAND  1650            47 48   90/ 10/ 12 1022.1          4/ 8
GREAT SOUTH BAY  1700            48 57  120/ 12/ 14   N/A
23 SSW MONTAUK P 1750            46 48  130/ 10/ 12 1022.3          4/ 8
15 E BARNEGAT LI 1722               51                N/A           4/ 9
HUDSON CANYON    1650            50 48              1020.8          5/ 8
KINGS POINT      1700            46 53              1021.6
EXECUTION ROCKS  NOT AVBL
CENTRAL LI SOUND 1700            48     100/ 10/ 12   N/A           1
EASTERN LI SOUND 1700            48 48  120/  8/ 12   N/A
ROBBINS REEF     1712            47     120/ 12/ 15 1020.8
$$


>>>>>>>>>>>>>>>>>>>>>>>>>>>> KEY <<<<<<<<<<<<<<<<<<<<<<<<<<<
>                                                          <
>     SKY/WX - SKY CONDITION/PRESENT WEATHER               <
>     TMP    - TEMPERATURE IN FAHRENHEIT                   <
>     DP     - DEWPOINT IN FAHRENHEIT                      <
>     RH     - RELATIVE HUMIDITY IN PERCENT                <
>     WIND   - DIRECTION AND SPEED IN MPH                  <
>     PRES   - MEAN SEA LEVEL PRESSURE IN INCHES OF HG     <
>     WCI    - WIND CHILL INDEX                            <
>     VSB    - VISIBILITY IN MILES                         <
>     HX     - HEAT INDEX                                  <
>     TC     - TEMPERATURE IN CELSIUS                      <
>     VRB    - VARIABLE WIND DIRECTION                     <
>                                                          <
>>>>>>>>>>>>>>>>>>>>>>>>>>>> KEY <<<<<<<<<<<<<<<<<<<<<<<<<<<






USA.gov is the U.S. government's official web portal to all federal, state and local government web resources and services.